| time (UTC) | temp C | wind direction | speed KPH | gust KPH | rain 1hr cm | rain 24hr cm | rain mn cm | humidity % | barometer mb |
| 20260506100020 | 19 | 281 | 4.8 | 12.9 | 0.00 | 0.00 | 0.00 | 43 | 1012.4 |
| 20260506094510 | 20 | 75 | 4.8 | 16.1 | 0.00 | 0.00 | 0.00 | 46 | 1012.4 |
| 20260506093101 | 19 | 255 | 4.8 | 14.5 | 0.00 | 0.00 | 0.00 | 44 | 1012.5 |
| 20260506091549 | 19 | 79 | 4.8 | 14.5 | 0.00 | 0.00 | 0.00 | 45 | 1012.5 |
| 20260506090045 | 17 | 259 | 6.4 | 19.3 | 0.00 | 0.00 | 0.00 | 47 | 1012.5 |
| 20260506084530 | 17 | 239 | 3.2 | 19.3 | 0.00 | 0.00 | 0.00 | 51 | 1012.3 |
| 20260506083032 | 17 | 277 | 9.7 | 22.5 | 0.00 | 0.00 | 0.00 | 48 | 1012.1 |
| 20260506081508 | 16 | 233 | 9.7 | 19.3 | 0.00 | 0.00 | 0.00 | 48 | 1011.9 |
| 20260506073031 | 15 | 188 | 4.8 | 17.7 | 0.00 | 0.00 | 0.00 | 49 | 1011.5 |
| 20260506071522 | 15 | 82 | 4.8 | 17.7 | 0.00 | 0.00 | 0.00 | 47 | 1011.7 |
| 20260506061533 | 17 | 52 | 1.6 | 8.0 | 0.00 | 0.00 | 0.00 | 46 | 1011.3 |
| 20260506044613 | 12 | 71 | 1.6 | 4.8 | 0.00 | 0.00 | 0.00 | 53 | 1011.0 |
| 20260506043056 | 9 | 358 | 0.0 | 0.0 | 0.00 | 0.00 | 0.00 | 63 | 1011.0 |
| 20260506041546 | 8 | 358 | 0.0 | 0.0 | 0.00 | 0.00 | 0.00 | 62 | 1011.0 |
| 20260506040044 | 8 | 358 | 0.0 | 0.0 | 0.00 | 0.00 | 0.00 | 61 | 1011.1 |
| 20260506034522 | 8 | 358 | 0.0 | 0.0 | 0.00 | 0.00 | 0.00 | 60 | 1010.9 |
| 20260506033013 | 8 | 358 | 0.0 | 0.0 | 0.00 | 0.00 | 0.00 | 60 | 1010.8 |
| 20260506031602 | 8 | 358 | 0.0 | 0.0 | 0.00 | 0.00 | 0.00 | 61 | 1010.8 |
| 20260506030052 | 8 | 358 | 0.0 | 0.0 | 0.00 | 0.00 | 0.00 | 61 | 1010.7 |
| 20260506024546 | 8 | 358 | 0.0 | 0.0 | 0.00 | 0.00 | 0.00 | 60 | 1010.6 |
| 20260506023032 | 8 | 358 | 0.0 | 0.0 | 0.00 | 0.00 | 0.00 | 57 | 1010.6 |
| 20260506021528 | 9 | 276 | 0.0 | 3.2 | 0.00 | 0.00 | 0.00 | 56 | 1010.7 |
| 20260506020001 | 9 | 310 | 0.0 | 1.6 | 0.00 | 0.00 | 0.00 | 56 | 1010.7 |
| 20260506014548 | 9 | 360 | 0.0 | 0.0 | 0.00 | 0.00 | 0.00 | 55 | 1010.8 |
| 20260506013033 | 9 | 360 | 0.0 | 0.0 | 0.00 | 0.00 | 0.00 | 56 | 1010.9 |
| 20260506011525 | 10 | 360 | 0.0 | 1.6 | 0.00 | 0.00 | 0.00 | 53 | 1010.8 |
| 20260506010010 | 10 | 249 | 0.0 | 3.2 | 0.00 | 0.00 | 0.00 | 50 | 1010.7 |
| 20260506004537 | 10 | 1 | 0.0 | 1.6 | 0.00 | 0.00 | 0.00 | 53 | 1010.5 |
| 20260506003025 | 10 | 4 | 0.0 | 0.0 | 0.00 | 0.00 | 0.00 | 52 | 1010.6 |
| 20260506001514 | 10 | 1 | 0.0 | 1.6 | 0.00 | 0.00 | 0.00 | 51 | 1010.5 |
| 20260506000110 | 10 | 28 | 0.0 | 3.2 | 0.00 | 0.00 | 0.00 | 50 | 1010.6 |
| 20260505234549 | 10 | 273 | 0.0 | 3.2 | 0.00 | 0.00 | 0.00 | 52 | 1010.7 |
| 20260505233023 | 10 | 349 | 0.0 | 0.0 | 0.00 | 0.00 | 0.00 | 51 | 1010.8 |
| 20260505231520 | 10 | 349 | 0.0 | 1.6 | 0.00 | 0.00 | 0.00 | 51 | 1010.8 |
| 20260505230059 | 11 | 349 | 0.0 | 1.6 | 0.00 | 0.00 | 0.00 | 50 | 1011.0 |
| 20260505224545 | 11 | 349 | 0.0 | 1.6 | 0.00 | 0.00 | 0.00 | 48 | 1011.1 |
| 20260505223033 | 12 | 349 | 0.0 | 0.0 | 0.00 | 0.00 | 0.00 | 46 | 1011.2 |
| 20260505221522 | 12 | 349 | 0.0 | 0.0 | 0.00 | 0.00 | 0.00 | 45 | 1011.2 |
| 20260505220007 | 12 | 296 | 1.6 | 3.2 | 0.00 | 0.00 | 0.00 | 44 | 1011.2 |
| 20260505214603 | 12 | 296 | 1.6 | 4.8 | 0.00 | 0.00 | 0.00 | 45 | 1011.2 |
| 20260505213038 | 12 | 279 | 1.6 | 4.8 | 0.00 | 0.00 | 0.00 | 45 | 1011.2 |
| 20260505211535 | 12 | 310 | 0.0 | 3.2 | 0.00 | 0.00 | 0.00 | 45 | 1011.3 |
| 20260505210011 | 12 | 269 | 1.6 | 8.0 | 0.00 | 0.00 | 0.00 | 45 | 1011.2 |
| 20260505204600 | 12 | 346 | 0.0 | 1.6 | 0.00 | 0.00 | 0.00 | 41 | 1011.2 |
| 20260505203108 | 13 | 346 | 0.0 | 3.2 | 0.00 | 0.00 | 0.00 | 40 | 1011.0 |
| 20260505201534 | 13 | 347 | 0.0 | 3.2 | 0.00 | 0.00 | 0.00 | 38 | 1011.1 |
| 20260505200022 | 14 | 282 | 0.0 | 3.2 | 0.00 | 0.00 | 0.00 | 34 | 1011.0 |
| 20260505194507 | 15 | 331 | 0.0 | 1.6 | 0.00 | 0.00 | 0.00 | 32 | 1011.1 |
| 20260505193053 | 16 | 338 | 0.0 | 0.0 | 0.00 | 0.00 | 0.00 | 29 | 1010.9 |
| 20260505191544 | 16 | 338 | 0.0 | 0.0 | 0.00 | 0.00 | 0.00 | 29 | 1011.0 |
| 20260505190025 | 16 | 338 | 0.0 | 1.6 | 0.00 | 0.00 | 0.00 | 30 | 1011.0 |
| 20260505184522 | 17 | 290 | 0.0 | 1.6 | 0.00 | 0.00 | 0.00 | 28 | 1011.0 |
| 20260505183001 | 17 | 297 | 0.0 | 3.2 | 0.00 | 0.00 | 0.00 | 27 | 1011.1 |
| 20260505181553 | 17 | 291 | 0.0 | 3.2 | 0.00 | 0.00 | 0.00 | 28 | 1011.0 |
| 20260505180044 | 17 | 291 | 0.0 | 3.2 | 0.00 | 0.00 | 0.00 | 27 | 1010.9 |
| 20260505174525 | 18 | 275 | 0.0 | 3.2 | 0.00 | 0.00 | 0.00 | 26 | 1010.9 |
| 20260505173006 | 19 | 275 | 1.6 | 6.4 | 0.00 | 0.00 | 0.00 | 22 | 1010.8 |
| 20260505171558 | 19 | 262 | 3.2 | 9.7 | 0.00 | 0.00 | 0.00 | 22 | 1010.9 |
| 20260505170047 | 20 | 302 | 0.0 | 9.7 | 0.00 | 0.00 | 0.00 | 23 | 1011.0 |
| 20260505164537 | 21 | 228 | 1.6 | 6.4 | 0.00 | 0.00 | 0.00 | 21 | 1010.9 |
| 20260505163025 | 21 | 297 | 3.2 | 16.1 | 0.00 | 0.00 | 0.00 | 20 | 1011.1 |
| 20260505161506 | 22 | 236 | 3.2 | 14.5 | 0.00 | 0.00 | 0.00 | 18 | 1011.1 |
| 20260505153048 | 23 | 242 | 3.2 | 16.1 | 0.00 | 0.00 | 0.00 | 18 | 1011.4 |
| 20260505151527 | 23 | 289 | 3.2 | 12.9 | 0.00 | 0.00 | 0.00 | 19 | 1011.6 |
| 20260505124514 | 23 | 255 | 6.4 | 16.1 | 0.00 | 0.00 | 0.00 | 21 | 1012.9 |
| 20260505123002 | 23 | 276 | 6.4 | 24.1 | 0.00 | 0.00 | 0.00 | 23 | 1013.2 |
| 20260505121554 | 23 | 154 | 9.7 | 29.0 | 0.00 | 0.00 | 0.00 | 22 | 1013.6 |
| 20260505120042 | 23 | 252 | 6.4 | 16.1 | 0.00 | 0.00 | 0.00 | 23 | 1013.6 |
| 20260505114523 | 23 | 230 | 3.2 | 16.1 | 0.00 | 0.00 | 0.00 | 29 | 1013.9 |
| 20260505113019 | 22 | 278 | 3.2 | 14.5 | 0.00 | 0.00 | 0.00 | 23 | 1014.1 |
| 20260505111503 | 22 | 222 | 8.0 | 30.6 | 0.00 | 0.00 | 0.00 | 28 | 1014.1 |
| 20260505101521 | 21 | 309 | 6.4 | 19.3 | 0.00 | 0.00 | 0.00 | 24 | 1014.5 |